{"data":{"norad_id":66463,"epoch":"2026-05-24T22:02:30.109056Z","epoch_age_seconds":72273,"freshness":"FRESH","line1":"1 66463U 25262H   26144.91840404  .00009468  00000+0  35306-3 0  9995","line2":"2 66463  43.0000 225.7507 0001348 276.6107  83.4591 15.27586207 30564","mean_motion":15.27586207,"eccentricity":0.0001348,"inclination_deg":43,"raan_deg":225.7507,"arg_perigee_deg":276.6107,"mean_anomaly_deg":83.4591,"bstar":0.00035306,"rev_number":3056,"period_min":94.266365682104,"perigee_km":482.10562473127,"apogee_km":483.95539549199,"semimajor_km":6861.1675101116,"source":"CELESTRAK","updated_at":"2026-05-25T13:38:21.215277Z"}}